Regional Weather Roundup
Issued by NWS

Home | Current Version | Previous Version | Graphics & Text | Print | Product List | Glossary On
Versions: 1 2 3 4 5 6 7 8 9 10 11 12 13 14 15 16 17 18 19 20 21 22 23 24 25 26 27 28 29 30 31 32 33 34 35 36 37 38 39 40 41 42 43 44 45 46 47 48 49 50
550
ASUS45 KCYS 291210
RWRWY

WYOMING REGIONAL WEATHER ROUNDUP
NATIONAL WEATHER SERVICE CHEYENNE WY
600 AM MDT FRI APR 29 2016

NOTE:  "FAIR" INDICATES FEW OR NO CLOUDS BELOW 12,000 FEET
WITH NO SIGNIFICANT WEATHER AND/OR OBSTRUCTIONS TO VISIBILITY.

WYZ001-291300-
YELLOWSTONE NATIONAL PARK

CITY           SKY/WX    TMP DP  RH WIND       PRES   REMARKS
LK YELLOWSTONE   N/A     23  19  85 CALM      29.92F
6HR MIN TEMP:  23; 6HR MAX TEMP:  29;

W YELLOWSTONE  NOT AVBL

$$
WYZ002>013-054>058-071-098>099-291300-
NORTHERN WYOMING

CITY           SKY/WX    TMP DP  RH WIND       PRES   REMARKS
JACKSON        CLOUDY    34  32  93 N9        29.92R WCI  26
CODY           CLOUDY    34  30  86 CALM      29.97F
GREYBULL       CLOUDY    41  29  62 S5        29.99R
6HR MIN TEMP:  40; 6HR MAX TEMP:  43;

WORLAND        CLOUDY    38  30  73 SE7       29.99S WCI  33
6HR MIN TEMP:  38; 6HR MAX TEMP:  40;

SHERIDAN       CLOUDY    36  32  85 SE3       30.01F
6HR MIN TEMP:  36; 6HR MAX TEMP:  37;

BUFFALO          N/A    N/A N/A N/A MISG      30.03S
GILLETTE       CLOUDY    35  33  92 CALM      30.04S
6HR MIN TEMP:  34; 6HR MAX TEMP:  35;

HULETT         CLOUDY    36  34  93 S3        30.08R
NEWCASTLE      CLOUDY    34  34 100 SE5       30.09R WCI  30

$$
WYZ014>020-022>026-101>103-291300-
CENTRAL WYOMING

CITY           SKY/WX    TMP DP  RH WIND       PRES   REMARKS
BIG PINEY      CLOUDY    30  25  81 S7        29.95F WCI  23
6HR MIN TEMP:  26; 6HR MAX TEMP:  32;

PINEDALE       CLOUDY    30  28  93 CALM      29.95F
DUBOIS         CLOUDY    25  25 100 SE8       29.96R WCI  16
LANDER         CLOUDY    32  27  81 CALM      29.98F
6HR MIN TEMP:  32; 6HR MAX TEMP:  33;

RIVERTON       CLOUDY    33  27  78 NE5       30.00F WCI  29
6HR MIN TEMP:  33; 6HR MAX TEMP:  34;

CASPER         CLOUDY    32  29  88 E12       30.01R WCI  23
6HR MIN TEMP:  32; 6HR MAX TEMP:  33;

DOUGLAS        CLOUDY    34  32  92 SE14      30.05R WCI  25
6HR MIN TEMP:  33; 6HR MAX TEMP:  34; 6HR PCP:  0.01;


$$
WYZ021-027>030-104>119-291300-
SOUTHERN WYOMING

CITY           SKY/WX    TMP DP  RH WIND       PRES   REMARKS
EVANSTON       CLOUDY    31  27  85 NE5       29.90S WCI  26
6HR MIN TEMP:  30; 6HR MAX TEMP:  32; 6HR PCP: TRACE;

FORT BRIDGER   CLOUDY    30  30 100 E8        29.93F WCI  23
ROCK SPRINGS   CLOUDY    30  26  85 NE15      29.91F WCI  19
6HR MIN TEMP:  30; 6HR MAX TEMP:  31; 6HR PCP: TRACE;

DIXON          PTSUNNY   34  32  92 CALM      29.89S
RAWLINS        CLOUDY    31  28  89 NE12      29.93S WCI  22
6HR MIN TEMP:  30; 6HR MAX TEMP:  31;

SARATOGA       CLOUDY    30  30 100 N5        29.90F WCI  25
LARAMIE        CLOUDY    30  27  88 SE9       29.93F WCI  22
6HR MIN TEMP:  29; 6HR MAX TEMP:  30;

CHEYENNE       CLOUDY    31  30  96 SE13      29.99S WCI  21
6HR MIN TEMP:  31; 6HR MAX TEMP:  32; 6HR PCP:  0.01;

TORRINGTON     CLOUDY    34  33  96 E8        30.05F WCI  27
6HR MIN TEMP:  33; 6HR MAX TEMP:  36;

PINE BLUFFS    CLOUDY    32  32 100 E7        30.03F FOG     WCI  26

$$




USA.gov is the U.S. government's official web portal to all federal, state and local government web resources and services.